Погода в Питтсбурге

США     40°26′26″N   79°59′47″W
темп.,
°C
ветер,
м/с
пор.,
м/с
влажн.,
%
обл.,
%
осадки,
мм/ч
давл.,
гПа
погр.,
м
23 октября, сб
сб2323:00+10зюз2574100 0.0 1016332
02:00+9зюз2467100 0.0 1015325
05:00+9з2469100 0.0 1015453
08:00+8зсз1290100 1.6 1016304
11:00+8з1392100 1.8 1017364
14:00+10з3579100 2.0 1016955
17:00+10з3677100 0.4 1016995
20:00+9юз158098 0.4 1018216
24 октября, вс
вс2423:00+7зюз12865 0.0 101946
02:00+7юз118650 0.0 102014
05:00+8ююв1183100 0.0 102037
08:00+8юв1286100 0.1 102095
11:00+10юв1592100 0.4 1019210
14:00+12ююв2482100 0.4 1017220
17:00+12юв169798 4.3 1015206
20:00+13ююв1497100 4.9 1014121
25 октября, пн
пн2523:00+13ю3149034 0.1 1012418
02:00+12ю2791100 0.5 1013196
05:00+11ююв289255 0.0 1013192
08:00+11ююв2891100 0.0 1012173
11:00+16ююз41465100 0.0 1010865
14:00+19юз51259100 0.0 10091324
17:00+15ююз41188100 1.0 1008937
20:00+15ю4993100 2.6 1007716
26 октября, вт
вт2623:00+14ю1497100 0.8 1006174
02:00+13ююз2698100 4.4 1005469
05:00+12зюз3795100 0.9 1006433
08:00+12з3797100 2.3 1006557
11:00+9сз51193100 0.3 1008569
14:00+8ссз51191100 0.7 1009689
17:00+8ссз4988100 0.2 1011785
20:00+7сз4886100 0.3 1012868
27 октября, ср
ср2723:00+7сз3784100 0.0 1012661
02:00+7сз3682100 0.0 1012550
05:00+7ссз3780100 0.0 1012577
08:00+7сз258298 0.0 1013380
11:00+8сз2380100 0.0 1013444
14:00+9ссз2379100 0.0 1012603
17:00+9св1281100 0.0 1011620
20:00+9вюв2585100 0.0 1012408